Time,TemperatureF,DewpointF,PressureIn,WindDirection,WindDirectionDegrees,WindSpeedMPH,WindSpeedGustMPH,Humidity,HourlyPrecipIn,Conditions,Clouds,dailyrainin,SoftwareType,DateUTC
2013-06-27 00:00:00,76.1,66.4,29.83,West,262,0.0,2.0,72,0.00,,---,0.00,VWS V14.01,2013-06-27 05:00:00,
2013-06-27 00:02:00,76.0,66.7,29.83,West,269,0.0,1.0,73,0.00,,---,0.00,VWS V14.01,2013-06-27 05:02:00,
2013-06-27 00:07:00,76.0,66.7,29.83,West,275,0.0,1.0,73,0.00,,---,0.00,VWS V14.01,2013-06-27 05:07:00,
2013-06-27 00:13:00,75.8,66.5,29.83,West,270,0.0,1.0,73,0.00,,---,0.00,VWS V14.01,2013-06-27 05:13:00,
2013-06-27 00:18:00,75.7,66.4,29.83,West,280,0.0,1.0,73,0.00,,---,0.00,VWS V14.01,2013-06-27 05:18:00,
2013-06-27 00:23:00,75.4,66.5,29.83,West,279,0.0,1.0,74,0.00,,---,0.00,VWS V14.01,2013-06-27 05:23:00,
2013-06-27 00:28:00,75.1,66.6,29.83,West,280,0.0,1.0,75,0.00,,---,0.00,VWS V14.01,2013-06-27 05:28:00,
2013-06-27 00:30:00,75.0,66.6,29.83,West,279,0.0,1.0,75,0.00,,---,0.00,VWS V14.01,2013-06-27 05:30:00,
2013-06-27 00:33:00,74.8,66.7,29.83,West,279,0.0,1.0,76,0.00,,---,0.00,VWS V14.01,2013-06-27 05:33:00,
2013-06-27 00:38:00,74.5,66.8,29.83,West,279,0.0,1.0,77,0.00,,---,0.00,VWS V14.01,2013-06-27 05:38:00,
2013-06-27 00:43:00,74.2,66.9,29.84,West,277,0.0,1.0,78,0.00,,---,0.00,VWS V14.01,2013-06-27 05:43:00,
2013-06-27 00:48:00,74.0,66.7,29.84,West,277,0.0,1.0,78,0.00,,---,0.00,VWS V14.01,2013-06-27 05:48:00,
2013-06-27 00:53:00,74.0,66.7,29.84,West,278,0.0,1.0,78,0.00,,---,0.00,VWS V14.01,2013-06-27 05:53:00,
2013-06-27 00:58:00,73.9,66.6,29.84,West,276,0.0,1.0,78,0.00,,---,0.00,VWS V14.01,2013-06-27 05:58:00,
2013-06-27 01:00:00,73.9,66.6,29.84,West,276,0.0,1.0,78,0.00,,---,0.00,VWS V14.01,2013-06-27 06:00:00,
2013-06-27 01:03:00,73.8,66.9,29.84,WNW,299,0.0,2.0,79,0.00,,---,0.00,VWS V14.01,2013-06-27 06:03:00,
2013-06-27 01:09:00,73.8,66.9,29.84,West,273,0.0,2.0,79,0.00,,---,0.00,VWS V14.01,2013-06-27 06:09:00,
2013-06-27 01:14:00,73.7,66.8,29.84,West,273,0.0,2.0,79,0.00,,---,0.00,VWS V14.01,2013-06-27 06:14:00,
2013-06-27 01:19:00,73.4,66.9,29.84,West,273,1.0,2.0,80,0.00,,---,0.00,VWS V14.01,2013-06-27 06:19:00,
2013-06-27 01:24:00,73.3,66.8,29.84,West,274,0.0,2.0,80,0.00,,---,0.00,VWS V14.01,2013-06-27 06:24:00,
2013-06-27 01:29:00,73.1,66.9,29.84,West,276,0.0,1.0,81,0.00,,---,0.00,VWS V14.01,2013-06-27 06:29:00,
2013-06-27 01:30:00,73.1,66.9,29.84,West,276,1.0,2.0,81,0.00,,---,0.00,VWS V14.01,2013-06-27 06:30:00,
2013-06-27 01:34:00,73.0,66.5,29.84,WNW,283,0.0,2.0,80,0.00,,---,0.00,VWS V14.01,2013-06-27 06:34:00,
2013-06-27 01:39:00,73.0,66.5,29.84,West,276,1.0,5.0,80,0.00,,---,0.00,VWS V14.01,2013-06-27 06:39:00,
2013-06-27 01:44:00,73.1,66.6,29.84,West,276,0.0,5.0,80,0.00,,---,0.00,VWS V14.01,2013-06-27 06:44:00,
2013-06-27 01:49:00,73.1,66.6,29.85,West,276,0.0,5.0,80,0.00,,---,0.00,VWS V14.01,2013-06-27 06:49:00,
2013-06-27 01:54:00,73.0,66.5,29.85,West,263,1.0,5.0,80,0.00,,---,0.00,VWS V14.01,2013-06-27 06:54:00,
2013-06-27 02:00:00,73.0,66.5,29.85,WNW,290,0.0,1.0,80,0.00,,---,0.00,VWS V14.01,2013-06-27 07:00:00,
2013-06-27 02:05:00,72.9,66.4,29.84,West,271,0.0,2.0,80,0.00,,---,0.00,VWS V14.01,2013-06-27 07:05:00,
2013-06-27 02:10:00,72.8,66.3,29.84,North,354,1.0,3.0,80,0.00,,---,0.00,VWS V14.01,2013-06-27 07:10:00,
2013-06-27 02:15:00,72.7,66.2,29.84,West,265,1.0,3.0,80,0.00,,---,0.00,VWS V14.01,2013-06-27 07:15:00,
2013-06-27 02:20:00,72.7,66.2,29.85,WNW,283,0.0,3.0,80,0.00,,---,0.00,VWS V14.01,2013-06-27 07:20:00,
2013-06-27 02:25:00,72.6,66.4,29.85,WNW,284,0.0,3.0,81,0.00,,---,0.00,VWS V14.01,2013-06-27 07:25:00,
2013-06-27 02:30:00,72.4,66.2,29.85,West,264,0.0,2.0,81,0.00,,---,0.00,VWS V14.01,2013-06-27 07:30:00,
2013-06-27 02:35:00,72.1,66.3,29.85,West,264,0.0,2.0,82,0.00,,---,0.00,VWS V14.01,2013-06-27 07:35:00,
2013-06-27 02:40:00,71.8,66.4,29.85,WSW,255,0.0,2.0,83,0.00,,---,0.00,VWS V14.01,2013-06-27 07:40:00,
2013-06-27 02:46:00,71.4,66.3,29.86,WSW,255,0.0,2.0,84,0.00,,---,0.00,VWS V14.01,2013-06-27 07:46:00,
2013-06-27 02:51:00,71.0,65.9,29.85,West,260,0.0,2.0,84,0.00,,---,0.00,VWS V14.01,2013-06-27 07:51:00,
2013-06-27 02:56:00,70.7,66.0,29.85,West,260,0.0,2.0,85,0.00,,---,0.00,VWS V14.01,2013-06-27 07:56:00,
2013-06-27 03:00:00,70.6,65.9,29.85,West,260,0.0,2.0,85,0.00,,---,0.00,VWS V14.01,2013-06-27 08:00:00,
2013-06-27 03:01:00,70.6,65.9,29.85,West,260,0.0,0.0,85,0.00,,---,0.00,VWS V14.01,2013-06-27 08:01:00,
2013-06-27 03:06:00,70.6,65.9,29.85,West,260,0.0,1.0,85,0.00,,---,0.00,VWS V14.01,2013-06-27 08:06:00,
2013-06-27 03:11:00,70.4,65.7,29.85,West,260,0.0,1.0,85,0.00,,---,0.00,VWS V14.01,2013-06-27 08:11:00,
2013-06-27 03:16:00,70.2,65.5,29.85,West,260,0.0,1.0,85,0.00,,---,0.00,VWS V14.01,2013-06-27 08:16:00,
2013-06-27 03:21:00,69.9,65.5,29.85,West,260,0.0,1.0,86,0.00,,---,0.00,VWS V14.01,2013-06-27 08:21:00,
2013-06-27 03:26:00,69.4,65.4,29.85,West,260,0.0,1.0,87,0.00,,---,0.00,VWS V14.01,2013-06-27 08:26:00,
2013-06-27 03:30:00,69.2,65.2,29.85,West,260,0.0,1.0,87,0.00,,---,0.00,VWS V14.01,2013-06-27 08:30:00,
2013-06-27 03:32:00,69.0,65.3,29.85,West,260,0.0,0.0,88,0.00,,---,0.00,VWS V14.01,2013-06-27 08:32:00,
2013-06-27 03:37:00,68.8,65.4,29.85,West,260,0.0,0.0,89,0.00,,---,0.00,VWS V14.01,2013-06-27 08:37:00,
2013-06-27 03:42:00,68.6,65.6,29.85,West,260,0.0,0.0,90,0.00,,---,0.00,VWS V14.01,2013-06-27 08:42:00,
2013-06-27 03:47:00,68.4,65.7,29.85,West,260,0.0,1.0,91,0.00,,---,0.00,VWS V14.01,2013-06-27 08:47:00,
2013-06-27 03:52:00,68.3,65.6,29.85,West,260,0.0,1.0,91,0.00,,---,0.00,VWS V14.01,2013-06-27 08:52:00,
2013-06-27 03:57:00,68.2,65.5,29.85,West,260,0.0,1.0,91,0.00,,---,0.00,VWS V14.01,2013-06-27 08:57:00,
2013-06-27 04:00:00,68.3,65.6,29.85,West,260,0.0,1.0,91,0.00,,---,0.00,VWS V14.01,2013-06-27 09:00:00,
2013-06-27 04:02:00,68.3,65.6,29.85,West,260,0.0,0.0,91,0.00,,---,0.00,VWS V14.01,2013-06-27 09:02:00,
2013-06-27 04:07:00,68.2,65.5,29.85,West,259,0.0,0.0,91,0.00,,---,0.00,VWS V14.01,2013-06-27 09:07:00,
2013-06-27 04:13:00,68.3,65.6,29.85,West,260,0.0,0.0,91,0.00,,---,0.00,VWS V14.01,2013-06-27 09:13:00,
2013-06-27 04:18:00,68.3,65.6,29.85,West,260,0.0,0.0,91,0.00,,---,0.00,VWS V14.01,2013-06-27 09:18:00,
2013-06-27 04:23:00,68.2,65.2,29.85,West,260,0.0,0.0,90,0.00,,---,0.00,VWS V14.01,2013-06-27 09:23:00,
2013-06-27 04:28:00,68.2,65.2,29.86,West,260,0.0,0.0,90,0.00,,---,0.00,VWS V14.01,2013-06-27 09:28:00,
2013-06-27 04:30:00,68.2,65.2,29.86,West,260,0.0,0.0,90,0.00,,---,0.00,VWS V14.01,2013-06-27 09:30:00,
2013-06-27 04:33:00,68.3,65.3,29.86,West,260,0.0,0.0,90,0.00,,---,0.00,VWS V14.01,2013-06-27 09:33:00,
2013-06-27 04:38:00,68.3,65.3,29.86,West,260,0.0,0.0,90,0.00,,---,0.00,VWS V14.01,2013-06-27 09:38:00,
2013-06-27 04:43:00,67.9,65.2,29.85,West,260,0.0,0.0,91,0.00,,---,0.00,VWS V14.01,2013-06-27 09:43:00,
2013-06-27 04:48:00,67.8,65.1,29.86,West,260,0.0,1.0,91,0.00,,---,0.00,VWS V14.01,2013-06-27 09:48:00,
2013-06-27 04:53:00,67.7,65.3,29.86,West,260,0.0,1.0,92,0.00,,---,0.00,VWS V14.01,2013-06-27 09:53:00,
2013-06-27 04:58:00,67.8,65.4,29.86,West,260,0.0,1.0,92,0.00,,---,0.00,VWS V14.01,2013-06-27 09:58:00,
2013-06-27 05:00:00,67.7,65.3,29.86,West,260,0.0,1.0,92,0.00,,---,0.00,VWS V14.01,2013-06-27 10:00:00,
2013-06-27 05:04:00,67.7,65.3,29.86,West,260,0.0,0.0,92,0.00,,---,0.00,VWS V14.01,2013-06-27 10:04:00,
2013-06-27 05:09:00,67.6,65.2,29.86,West,260,0.0,1.0,92,0.00,,---,0.00,VWS V14.01,2013-06-27 10:09:00,
2013-06-27 05:14:00,67.6,65.5,29.87,West,260,0.0,1.0,93,0.00,,---,0.00,VWS V14.01,2013-06-27 10:14:00,
2013-06-27 05:19:00,67.7,65.6,29.87,West,260,0.0,1.0,93,0.00,,---,0.00,VWS V14.01,2013-06-27 10:19:00,
2013-06-27 05:24:00,67.8,65.7,29.87,West,263,0.0,1.0,93,0.00,,---,0.00,VWS V14.01,2013-06-27 10:24:00,
2013-06-27 05:29:00,67.9,65.8,29.87,West,263,0.0,0.0,93,0.00,,---,0.00,VWS V14.01,2013-06-27 10:29:00,
2013-06-27 05:30:00,67.9,65.8,29.87,West,263,0.0,1.0,93,0.00,,---,0.00,VWS V14.01,2013-06-27 10:30:00,
2013-06-27 05:34:00,67.9,65.8,29.88,WSW,252,0.0,0.0,93,0.00,,---,0.00,VWS V14.01,2013-06-27 10:34:00,
2013-06-27 05:39:00,67.9,65.8,29.88,WSW,252,0.0,1.0,93,0.00,,---,0.00,VWS V14.01,2013-06-27 10:39:00,
2013-06-27 05:44:00,67.8,65.7,29.88,WSW,252,0.0,1.0,93,0.00,,---,0.00,VWS V14.01,2013-06-27 10:44:00,
2013-06-27 05:49:00,67.7,65.6,29.88,WSW,252,0.0,1.0,93,0.00,,---,0.00,VWS V14.01,2013-06-27 10:49:00,
2013-06-27 05:55:00,67.5,65.7,29.88,WSW,252,0.0,1.0,94,0.00,,---,0.00,VWS V14.01,2013-06-27 10:55:00,
2013-06-27 06:00:00,67.5,65.7,29.88,NNW,342,0.0,1.0,94,0.00,,---,0.00,VWS V14.01,2013-06-27 11:00:00,
2013-06-27 06:05:00,67.6,65.8,29.88,NNW,342,0.0,1.0,94,0.00,,---,0.00,VWS V14.01,2013-06-27 11:05:00,
2013-06-27 06:10:00,67.6,65.8,29.88,NNW,342,0.0,1.0,94,0.00,,---,0.00,VWS V14.01,2013-06-27 11:10:00,
2013-06-27 06:15:00,67.6,65.8,29.88,NNW,343,0.0,1.0,94,0.00,,---,0.00,VWS V14.01,2013-06-27 11:15:00,
2013-06-27 06:20:00,67.7,65.9,29.88,NNW,342,0.0,1.0,94,0.00,,---,0.00,VWS V14.01,2013-06-27 11:20:00,
2013-06-27 06:25:00,67.9,66.1,29.88,NNW,342,0.0,1.0,94,0.00,,---,0.00,VWS V14.01,2013-06-27 11:25:00,
2013-06-27 06:30:00,68.1,66.3,29.88,NNW,342,0.0,0.0,94,0.00,,---,0.00,VWS V14.01,2013-06-27 11:30:00,
2013-06-27 06:35:00,68.6,66.8,29.88,NNW,343,0.0,0.0,94,0.00,,---,0.00,VWS V14.01,2013-06-27 11:35:00,
2013-06-27 06:41:00,69.7,67.6,29.87,NNW,342,0.0,0.0,93,0.00,,---,0.00,VWS V14.01,2013-06-27 11:41:00,
2013-06-27 06:46:00,71.1,68.7,29.87,NNW,342,0.0,0.0,92,0.00,,---,0.00,VWS V14.01,2013-06-27 11:46:00,
2013-06-27 06:51:00,72.0,68.6,29.88,WNW,300,1.0,1.0,89,0.00,,---,0.00,VWS V14.01,2013-06-27 11:51:00,
2013-06-27 06:56:00,72.5,68.4,29.88,SW,224,0.0,1.0,87,0.00,,---,0.00,VWS V14.01,2013-06-27 11:56:00,
2013-06-27 07:00:00,72.8,68.4,29.88,SW,224,0.0,1.0,86,0.00,,---,0.00,VWS V14.01,2013-06-27 12:00:00,
2013-06-27 07:01:00,73.2,68.1,29.87,SW,224,0.0,1.0,84,0.00,,---,0.00,VWS V14.01,2013-06-27 12:01:00,
2013-06-27 07:06:00,73.9,68.4,29.87,SW,222,0.0,2.0,83,0.00,,---,0.00,VWS V14.01,2013-06-27 12:06:00,
2013-06-27 07:11:00,74.8,69.3,29.87,SW,222,0.0,2.0,83,0.00,,---,0.00,VWS V14.01,2013-06-27 12:11:00,
2013-06-27 07:16:00,75.0,69.1,29.87,SSE,153,0.0,2.0,82,0.00,,---,0.00,VWS V14.01,2013-06-27 12:16:00,
2013-06-27 07:21:00,75.5,69.3,29.87,SSE,154,0.0,2.0,81,0.00,,---,0.00,VWS V14.01,2013-06-27 12:21:00,
2013-06-27 07:26:00,75.4,69.2,29.88,SSE,152,0.0,2.0,81,0.00,,---,0.00,VWS V14.01,2013-06-27 12:26:00,
2013-06-27 07:30:00,75.3,69.1,29.88,SSE,152,0.0,2.0,81,0.00,,---,0.00,VWS V14.01,2013-06-27 12:30:00,
2013-06-27 07:31:00,75.3,69.1,29.88,SSE,153,0.0,0.0,81,0.00,,---,0.00,VWS V14.01,2013-06-27 12:31:00,
2013-06-27 07:37:00,75.4,69.5,29.89,SW,218,0.0,2.0,82,0.00,,---,0.00,VWS V14.01,2013-06-27 12:37:00,
2013-06-27 07:42:00,75.3,69.1,29.88,West,275,1.0,2.0,81,0.00,,---,0.00,VWS V14.01,2013-06-27 12:42:00,
2013-06-27 07:47:00,75.4,69.5,29.88,SSW,194,1.0,2.0,82,0.00,,---,0.00,VWS V14.01,2013-06-27 12:47:00,
2013-06-27 07:52:00,75.7,69.5,29.89,West,264,1.0,2.0,81,0.00,,---,0.00,VWS V14.01,2013-06-27 12:52:00,
2013-06-27 07:57:00,76.2,69.9,29.89,West,264,0.0,2.0,81,0.00,,---,0.00,VWS V14.01,2013-06-27 12:57:00,
2013-06-27 08:00:00,76.5,69.9,29.89,WSW,245,0.0,2.0,80,0.00,,---,0.00,VWS V14.01,2013-06-27 13:00:00,
2013-06-27 08:02:00,77.0,69.6,29.89,West,275,0.0,1.0,78,0.00,,---,0.00,VWS V14.01,2013-06-27 13:02:00,
2013-06-27 08:07:00,77.2,69.4,29.89,WSW,252,0.0,2.0,77,0.00,,---,0.00,VWS V14.01,2013-06-27 13:07:00,
2013-06-27 08:12:00,77.2,69.1,29.89,WSW,252,0.0,2.0,76,0.00,,---,0.00,VWS V14.01,2013-06-27 13:12:00,
2013-06-27 08:18:00,77.0,68.9,29.89,SW,232,0.0,2.0,76,0.00,,---,0.00,VWS V14.01,2013-06-27 13:18:00,
2013-06-27 08:23:00,77.0,68.9,29.88,SW,219,1.0,3.0,76,0.00,,---,0.00,VWS V14.01,2013-06-27 13:23:00,
2013-06-27 08:28:00,77.2,68.7,29.88,SW,215,0.0,3.0,75,0.00,,---,0.00,VWS V14.01,2013-06-27 13:28:00,
2013-06-27 08:30:00,77.4,68.5,29.88,SW,215,0.0,3.0,74,0.00,,---,0.00,VWS V14.01,2013-06-27 13:30:00,
2013-06-27 08:33:00,78.1,69.1,29.88,SW,215,0.0,1.0,74,0.00,,---,0.00,VWS V14.01,2013-06-27 13:33:00,
2013-06-27 11:32:00,78.3,68.9,29.88,SW,215,0.0,1.0,73,0.00,,---,0.00,VWS V14.01,2013-06-27 16:32:00,
2013-06-27 11:37:00,79.4,69.6,29.92,West,273,1.0,7.0,72,0.00,,---,0.00,VWS V14.01,2013-06-27 16:37:00,
2013-06-27 11:42:00,79.6,69.8,29.92,SW,224,3.0,7.0,72,0.00,,---,0.00,VWS V14.01,2013-06-27 16:42:00,
2013-06-27 11:47:00,79.6,69.0,29.92,SW,232,3.0,7.0,70,0.00,,---,0.00,VWS V14.01,2013-06-27 16:47:00,
2013-06-27 11:52:00,79.5,68.4,29.93,West,271,9.0,14.0,69,0.00,,---,0.00,VWS V14.01,2013-06-27 16:52:00,
2013-06-27 11:57:00,79.6,69.0,29.93,NW,324,6.0,14.0,70,0.00,,---,0.00,VWS V14.01,2013-06-27 16:57:00,
2013-06-27 12:00:00,79.6,68.1,29.93,North,9,4.0,14.0,68,0.00,,---,0.00,VWS V14.01,2013-06-27 17:00:00,
2013-06-27 12:03:00,79.4,68.3,29.94,WNW,293,4.0,9.0,69,0.00,,---,0.00,VWS V14.01,2013-06-27 17:03:00,
2013-06-27 12:08:00,79.1,68.1,29.93,West,279,2.0,9.0,69,0.00,,---,0.00,VWS V14.01,2013-06-27 17:08:00,
2013-06-27 12:13:00,78.8,68.6,29.93,WSW,256,2.0,9.0,71,0.00,,---,0.00,VWS V14.01,2013-06-27 17:13:00,
2013-06-27 12:18:00,78.5,68.3,29.92,NNE,30,2.0,9.0,71,0.00,,---,0.00,VWS V14.01,2013-06-27 17:18:00,
2013-06-27 12:23:00,78.1,67.9,29.93,West,267,8.0,10.0,71,0.00,,---,0.00,VWS V14.01,2013-06-27 17:23:00,
2013-06-27 12:28:00,77.8,68.1,29.93,NNW,333,2.0,10.0,72,0.00,,---,0.00,VWS V14.01,2013-06-27 17:28:00,
2013-06-27 12:30:00,77.8,68.1,29.93,NNW,342,2.0,10.0,72,0.00,,---,0.00,VWS V14.01,2013-06-27 17:30:00,
2013-06-27 12:33:00,77.7,67.6,29.93,NW,318,1.0,10.0,71,0.00,,---,0.00,VWS V14.01,2013-06-27 17:33:00,
2013-06-27 12:38:00,77.5,67.4,29.92,West,278,4.0,10.0,71,0.00,,---,0.00,VWS V14.01,2013-06-27 17:38:00,
2013-06-27 12:43:00,77.4,66.4,29.92,WNW,300,4.0,10.0,69,0.00,,---,0.00,VWS V14.01,2013-06-27 17:43:00,
2013-06-27 12:48:00,77.3,66.8,29.92,WNW,303,7.0,10.0,70,0.00,,---,0.00,VWS V14.01,2013-06-27 17:48:00,
2013-06-27 12:54:00,77.2,66.7,29.94,NW,322,5.0,10.0,70,0.00,,---,0.00,VWS V14.01,2013-06-27 17:54:00,
2013-06-27 12:59:00,77.2,66.7,29.93,SE,136,2.0,10.0,70,0.00,,---,0.00,VWS V14.01,2013-06-27 17:59:00,
2013-06-27 13:00:00,77.2,66.7,29.93,WNW,293,2.0,10.0,70,0.00,,---,0.00,VWS V14.01,2013-06-27 18:00:00,
2013-06-27 13:04:00,77.0,66.5,29.93,SSW,212,3.0,9.0,70,0.00,,---,0.00,VWS V14.01,2013-06-27 18:04:00,
2013-06-27 13:09:00,76.5,67.2,29.93,WNW,293,2.0,9.0,73,0.00,,---,0.00,VWS V14.01,2013-06-27 18:09:00,
2013-06-27 13:14:00,75.7,67.2,29.93,NW,317,3.0,12.0,75,0.00,,---,0.00,VWS V14.01,2013-06-27 18:14:00,
2013-06-27 13:19:00,75.0,67.7,29.93,West,260,1.0,12.0,78,0.01,,---,0.01,VWS V14.01,2013-06-27 18:19:00,
2013-06-27 13:24:00,74.6,68.0,29.92,NNW,328,2.0,12.0,80,0.01,,---,0.01,VWS V14.01,2013-06-27 18:24:00,
2013-06-27 13:29:00,74.3,67.7,29.92,WNW,285,6.0,8.0,80,0.01,,---,0.01,VWS V14.01,2013-06-27 18:29:00,
2013-06-27 13:30:00,74.4,67.8,29.92,NW,324,4.0,12.0,80,0.01,,---,0.01,VWS V14.01,2013-06-27 18:30:00,
2013-06-27 13:34:00,74.5,67.9,29.92,WNW,293,4.0,8.0,80,0.01,,---,0.01,VWS V14.01,2013-06-27 18:34:00,
2013-06-27 13:39:00,74.5,67.9,29.91,WNW,290,0.0,8.0,80,0.01,,---,0.01,VWS V14.01,2013-06-27 18:39:00,
2013-06-27 13:45:00,74.8,68.2,29.91,SW,235,2.0,8.0,80,0.01,,---,0.01,VWS V14.01,2013-06-27 18:45:00,
2013-06-27 13:50:00,74.9,67.9,29.91,SW,232,0.0,8.0,79,0.01,,---,0.01,VWS V14.01,2013-06-27 18:50:00,
2013-06-27 13:55:00,75.0,68.4,29.90,West,259,1.0,8.0,80,0.01,,---,0.01,VWS V14.01,2013-06-27 18:55:00,
2013-06-27 14:00:00,75.2,68.6,29.90,West,267,2.0,3.0,80,0.01,,---,0.01,VWS V14.01,2013-06-27 19:00:00,
2013-06-27 14:05:00,75.7,68.4,29.91,West,278,5.0,7.0,78,0.01,,---,0.01,VWS V14.01,2013-06-27 19:05:00,
2013-06-27 14:10:00,76.4,68.7,29.91,WSW,240,1.0,8.0,77,0.01,,---,0.01,VWS V14.01,2013-06-27 19:10:00,
2013-06-27 14:15:00,77.2,68.7,29.90,WNW,287,0.0,8.0,75,0.01,,---,0.01,VWS V14.01,2013-06-27 19:15:00,
2013-06-27 14:20:00,78.0,68.7,29.90,West,267,2.0,8.0,73,0.01,,---,0.01,VWS V14.01,2013-06-27 19:20:00,
2013-06-27 14:25:00,78.1,68.8,29.91,WSW,255,0.0,8.0,73,0.01,,---,0.01,VWS V14.01,2013-06-27 19:25:00,
2013-06-27 14:30:00,78.3,68.5,29.91,NW,309,2.0,3.0,72,0.00,,---,0.01,VWS V14.01,2013-06-27 19:30:00,
2013-06-27 14:35:00,78.5,69.1,29.90,North,1,1.0,3.0,73,0.00,,---,0.01,VWS V14.01,2013-06-27 19:35:00,
2013-06-27 14:40:00,78.6,69.6,29.90,WNW,284,1.0,10.0,74,0.00,,---,0.01,VWS V14.01,2013-06-27 19:40:00,
2013-06-27 14:45:00,79.7,69.5,29.90,NNW,327,3.0,10.0,71,0.00,,---,0.01,VWS V14.01,2013-06-27 19:45:00,
2013-06-27 14:50:00,80.1,69.9,29.90,NNW,330,4.0,10.0,71,0.00,,---,0.01,VWS V14.01,2013-06-27 19:50:00,
2013-06-27 14:56:00,80.4,69.3,29.90,WNW,290,3.0,10.0,69,0.00,,---,0.01,VWS V14.01,2013-06-27 19:56:00,
2013-06-27 15:00:00,80.7,69.2,29.89,West,276,2.0,10.0,68,0.00,,---,0.01,VWS V14.01,2013-06-27 20:00:00,
2013-06-27 15:01:00,80.8,69.3,29.89,West,260,5.0,7.0,68,0.00,,---,0.01,VWS V14.01,2013-06-27 20:01:00,
2013-06-27 15:06:00,81.2,69.2,29.89,North,349,4.0,8.0,67,0.00,,---,0.01,VWS V14.01,2013-06-27 20:06:00,
2013-06-27 15:11:00,81.6,69.2,29.89,WSW,248,2.0,8.0,66,0.00,,---,0.01,VWS V14.01,2013-06-27 20:11:00,
2013-06-27 15:16:00,81.7,69.2,29.89,WSW,239,0.0,9.0,66,0.00,,---,0.01,VWS V14.01,2013-06-27 20:16:00,
2013-06-27 15:21:00,82.4,69.5,29.89,West,259,2.0,11.0,65,0.00,,---,0.01,VWS V14.01,2013-06-27 20:21:00,
2013-06-27 15:26:00,82.5,70.0,29.90,NW,311,4.0,11.0,66,0.00,,---,0.01,VWS V14.01,2013-06-27 20:26:00,
2013-06-27 15:30:00,82.4,69.5,29.89,WSW,252,6.0,11.0,65,0.00,,---,0.01,VWS V14.01,2013-06-27 20:30:00,
2013-06-27 15:31:00,82.4,69.5,29.89,WSW,239,2.0,6.0,65,0.00,,---,0.01,VWS V14.01,2013-06-27 20:31:00,
2013-06-27 15:36:00,82.8,69.8,29.89,NNW,348,6.0,8.0,65,0.00,,---,0.01,VWS V14.01,2013-06-27 20:36:00,
2013-06-27 15:41:00,83.2,70.2,29.89,WSW,243,3.0,8.0,65,0.00,,---,0.01,VWS V14.01,2013-06-27 20:41:00,
2013-06-27 15:46:00,83.5,69.1,29.89,WSW,257,2.0,8.0,62,0.00,,---,0.01,VWS V14.01,2013-06-27 20:46:00,
2013-06-27 15:51:00,84.2,69.3,29.89,West,281,5.0,8.0,61,0.00,,---,0.01,VWS V14.01,2013-06-27 20:51:00,
2013-06-27 15:56:00,84.5,69.6,29.89,SW,215,1.0,8.0,61,0.00,,---,0.01,VWS V14.01,2013-06-27 20:56:00,
2013-06-27 16:00:00,84.7,69.8,29.89,North,8,3.0,8.0,61,0.00,,---,0.01,VWS V14.01,2013-06-27 21:00:00,
2013-06-27 16:02:00,84.8,68.4,29.89,WNW,290,2.0,7.0,58,0.00,,---,0.01,VWS V14.01,2013-06-27 21:02:00,
2013-06-27 16:07:00,84.2,67.8,29.89,WNW,284,8.0,10.0,58,0.00,,---,0.01,VWS V14.01,2013-06-27 21:07:00,
2013-06-27 16:12:00,84.1,68.7,29.89,WNW,300,1.0,10.0,60,0.00,,---,0.01,VWS V14.01,2013-06-27 21:12:00,
2013-06-27 16:17:00,84.0,68.6,29.89,NNW,333,4.0,10.0,60,0.00,,---,0.01,VWS V14.01,2013-06-27 21:17:00,
2013-06-27 16:23:00,83.7,68.8,29.89,WNW,291,6.0,10.0,61,0.00,,---,0.01,VWS V14.01,2013-06-27 21:23:00,
2013-06-27 16:28:00,83.2,68.4,29.89,WNW,290,3.0,11.0,61,0.00,,---,0.01,VWS V14.01,2013-06-27 21:28:00,
2013-06-27 16:30:00,83.2,68.4,29.89,NW,321,0.0,11.0,61,0.00,,---,0.01,VWS V14.01,2013-06-27 21:30:00,
2013-06-27 16:33:00,83.4,69.5,29.89,WNW,284,1.0,7.0,63,0.00,,---,0.01,VWS V14.01,2013-06-27 21:33:00,
2013-06-27 16:38:00,83.6,69.2,29.89,SW,233,2.0,10.0,62,0.00,,---,0.01,VWS V14.01,2013-06-27 21:38:00,
2013-06-27 16:43:00,83.6,70.1,29.89,NW,311,4.0,10.0,64,0.00,,---,0.01,VWS V14.01,2013-06-27 21:43:00,
2013-06-27 16:48:00,83.9,69.5,29.88,West,275,2.0,10.0,62,0.00,,---,0.01,VWS V14.01,2013-06-27 21:48:00,
2013-06-27 16:53:00,84.2,69.3,29.88,West,281,3.0,10.0,61,0.00,,---,0.01,VWS V14.01,2013-06-27 21:53:00,
2013-06-27 16:58:00,84.5,71.0,29.88,West,264,5.0,10.0,64,0.00,,---,0.01,VWS V14.01,2013-06-27 21:58:00,
2013-06-27 17:00:00,84.5,71.0,29.88,NW,320,2.0,10.0,64,0.00,,---,0.01,VWS V14.01,2013-06-27 22:00:00,
2013-06-27 17:04:00,84.7,70.7,29.88,WSW,246,3.0,10.0,63,0.00,,---,0.01,VWS V14.01,2013-06-27 22:04:00,
2013-06-27 17:09:00,85.0,70.5,29.87,West,281,3.0,10.0,62,0.00,,---,0.01,VWS V14.01,2013-06-27 22:09:00,
2013-06-27 17:15:00,85.4,70.9,29.87,West,280,2.0,10.0,62,0.00,,---,0.01,VWS V14.01,2013-06-27 22:15:00,
2013-06-27 17:20:00,85.7,70.2,29.87,NW,313,4.0,10.0,60,0.00,,---,0.01,VWS V14.01,2013-06-27 22:20:00,
2013-06-27 17:25:00,85.9,70.9,29.86,NE,35,5.0,10.0,61,0.00,,---,0.01,VWS V14.01,2013-06-27 22:25:00,
2013-06-27 17:30:00,85.8,69.8,29.86,WNW,302,3.0,6.0,59,0.00,,---,0.01,VWS V14.01,2013-06-27 22:30:00,
2013-06-27 17:35:00,85.6,70.1,29.86,WNW,287,1.0,10.0,60,0.00,,---,0.01,VWS V14.01,2013-06-27 22:35:00,
2013-06-27 17:40:00,85.7,69.7,29.86,SSW,196,2.0,10.0,59,0.00,,---,0.01,VWS V14.01,2013-06-27 22:40:00,
2013-06-27 17:45:00,86.1,70.1,29.85,West,281,1.0,10.0,59,0.00,,---,0.01,VWS V14.01,2013-06-27 22:45:00,
2013-06-27 17:50:00,86.3,69.8,29.85,West,269,1.0,10.0,58,0.00,,---,0.01,VWS V14.01,2013-06-27 22:50:00,
2013-06-27 17:55:00,86.5,69.0,29.85,NW,314,5.0,10.0,56,0.00,,---,0.01,VWS V14.01,2013-06-27 22:55:00,
2013-06-27 18:00:00,86.5,69.0,29.85,West,279,3.0,5.0,56,0.00,,---,0.01,VWS V14.01,2013-06-27 23:00:00,
2013-06-27 18:05:00,86.7,69.1,29.85,NNE,13,1.0,9.0,56,0.00,,---,0.01,VWS V14.01,2013-06-27 23:05:00,
2013-06-27 18:10:00,87.0,68.4,29.85,NNE,33,1.0,9.0,54,0.00,,---,0.01,VWS V14.01,2013-06-27 23:10:00,
2013-06-27 18:15:00,87.1,67.9,29.85,WNW,295,4.0,9.0,53,0.00,,---,0.01,VWS V14.01,2013-06-27 23:15:00,
2013-06-27 18:21:00,86.8,66.5,29.85,NW,313,1.0,9.0,51,0.00,,---,0.01,VWS V14.01,2013-06-27 23:21:00,
2013-06-27 18:26:00,86.9,66.0,29.85,North,349,4.0,9.0,50,0.00,,---,0.01,VWS V14.01,2013-06-27 23:26:00,
2013-06-27 18:30:00,86.8,67.6,29.85,WNW,287,1.0,9.0,53,0.00,,---,0.01,VWS V14.01,2013-06-27 23:30:00,
2013-06-27 18:31:00,87.0,67.3,29.85,NNW,343,5.0,7.0,52,0.00,,---,0.01,VWS V14.01,2013-06-27 23:31:00,
2013-06-27 18:36:00,86.9,65.5,29.85,NW,312,1.0,8.0,49,0.00,,---,0.01,VWS V14.01,2013-06-27 23:36:00,
2013-06-27 18:42:00,86.8,64.8,29.84,NNW,340,3.0,8.0,48,0.00,,---,0.01,VWS V14.01,2013-06-27 23:42:00,
2013-06-27 18:47:00,86.5,65.1,29.84,NW,309,2.0,8.0,49,0.00,,---,0.01,VWS V14.01,2013-06-27 23:47:00,
2013-06-27 18:52:00,86.5,65.1,29.84,WNW,300,3.0,8.0,49,0.00,,---,0.01,VWS V14.01,2013-06-27 23:52:00,
2013-06-27 18:58:00,86.3,64.3,29.84,NW,315,1.0,8.0,48,0.00,,---,0.01,VWS V14.01,2013-06-27 23:58:00,
2013-06-27 19:00:00,86.3,64.9,29.84,West,264,0.0,8.0,49,0.00,,---,0.01,VWS V14.01,2013-06-28 00:00:00,
2013-06-27 19:03:00,86.3,65.5,29.85,NE,35,3.0,5.0,50,0.00,,---,0.01,VWS V14.01,2013-06-28 00:03:00,
2013-06-27 19:08:00,86.3,66.1,29.84,WSW,253,3.0,5.0,51,0.00,,---,0.01,VWS V14.01,2013-06-28 00:08:00,
2013-06-27 19:14:00,86.0,66.3,29.84,NW,314,1.0,5.0,52,0.00,,---,0.01,VWS V14.01,2013-06-28 00:14:00,
2013-06-27 19:19:00,85.9,65.7,29.84,North,4,1.0,5.0,51,0.00,,---,0.01,VWS V14.01,2013-06-28 00:19:00,
2013-06-27 19:24:00,85.8,66.7,29.84,WNW,293,2.0,5.0,53,0.00,,---,0.01,VWS V14.01,2013-06-28 00:24:00,
2013-06-27 19:29:00,85.5,66.4,29.84,West,266,1.0,2.0,53,0.00,,---,0.01,VWS V14.01,2013-06-28 00:29:00,
2013-06-27 19:30:00,85.5,66.4,29.84,NNW,340,3.0,8.0,53,0.00,,---,0.01,VWS V14.01,2013-06-28 00:30:00,
2013-06-27 19:34:00,85.2,67.2,29.84,NW,319,3.0,5.0,55,0.00,,---,0.01,VWS V14.01,2013-06-28 00:34:00,
2013-06-27 19:40:00,84.6,67.2,29.84,NW,324,5.0,5.0,56,0.00,,---,0.01,VWS V14.01,2013-06-28 00:40:00,
2013-06-27 19:45:00,84.1,67.2,29.84,WNW,285,2.0,8.0,57,0.00,,---,0.01,VWS V14.01,2013-06-28 00:45:00,
2013-06-27 19:50:00,83.7,67.4,29.84,WNW,293,2.0,8.0,58,0.00,,---,0.01,VWS V14.01,2013-06-28 00:50:00,
2013-06-27 19:55:00,83.3,67.5,29.84,West,267,3.0,8.0,59,0.00,,---,0.01,VWS V14.01,2013-06-28 00:55:00,
2013-06-27 20:00:00,83.0,68.2,29.84,NNW,340,4.0,4.0,61,0.00,,---,0.01,VWS V14.01,2013-06-28 01:00:00,
2013-06-27 20:06:00,82.8,68.0,29.84,NW,319,3.0,6.0,61,0.00,,---,0.01,VWS V14.01,2013-06-28 01:06:00,
2013-06-27 20:11:00,82.5,68.2,29.84,West,277,1.0,6.0,62,0.00,,---,0.01,VWS V14.01,2013-06-28 01:11:00,
2013-06-27 20:16:00,82.2,68.4,29.84,WNW,300,1.0,6.0,63,0.00,,---,0.01,VWS V14.01,2013-06-28 01:16:00,
2013-06-27 20:22:00,81.9,68.5,29.84,WNW,293,0.0,6.0,64,0.00,,---,0.01,VWS V14.01,2013-06-28 01:22:00,
2013-06-27 20:27:00,81.6,68.7,29.84,West,281,0.0,6.0,65,0.00,,---,0.01,VWS V14.01,2013-06-28 01:27:00,
2013-06-27 20:30:00,81.5,68.6,29.84,West,259,0.0,6.0,65,0.00,,---,0.01,VWS V14.01,2013-06-28 01:30:00,
2013-06-27 20:32:00,81.4,69.0,29.84,WSW,255,0.0,3.0,66,0.00,,---,0.01,VWS V14.01,2013-06-28 01:32:00,
2013-06-27 20:37:00,81.0,69.0,29.84,WSW,255,0.0,3.0,67,0.00,,---,0.01,VWS V14.01,2013-06-28 01:37:00,
2013-06-27 20:42:00,80.6,68.6,29.84,WSW,255,0.0,3.0,67,0.00,,---,0.01,VWS V14.01,2013-06-28 01:42:00,
2013-06-27 20:47:00,80.3,68.8,29.85,WSW,256,1.0,3.0,68,0.00,,---,0.01,VWS V14.01,2013-06-28 01:47:00,
2013-06-27 20:52:00,80.0,68.9,29.84,WNW,302,0.0,3.0,69,0.00,,---,0.01,VWS V14.01,2013-06-28 01:52:00,
2013-06-27 20:57:00,79.7,69.1,29.84,West,278,1.0,3.0,70,0.00,,---,0.01,VWS V14.01,2013-06-28 01:57:00,
2013-06-27 21:00:00,79.6,69.0,29.84,West,259,1.0,3.0,70,0.00,,---,0.01,VWS V14.01,2013-06-28 02:00:00,
2013-06-27 21:03:00,79.5,68.9,29.84,WNW,302,0.0,3.0,70,0.00,,---,0.01,VWS V14.01,2013-06-28 02:03:00,
2013-06-27 21:08:00,79.6,68.5,29.84,West,281,0.0,4.0,69,0.00,,---,0.01,VWS V14.01,2013-06-28 02:08:00,
2013-06-27 21:13:00,79.4,68.3,29.84,WNW,293,0.0,4.0,69,0.00,,---,0.01,VWS V14.01,2013-06-28 02:13:00,
2013-06-27 21:18:00,79.2,68.2,29.84,WNW,293,0.0,4.0,69,0.00,,---,0.01,VWS V14.01,2013-06-28 02:18:00,
2013-06-27 21:23:00,79.1,68.1,29.84,WSW,257,0.0,4.0,69,0.00,,---,0.01,VWS V14.01,2013-06-28 02:23:00,
2013-06-27 21:28:00,78.8,67.8,29.85,West,267,0.0,4.0,69,0.00,,---,0.01,VWS V14.01,2013-06-28 02:28:00,
2013-06-27 21:30:00,78.8,67.8,29.85,West,275,1.0,4.0,69,0.00,,---,0.01,VWS V14.01,2013-06-28 02:30:00,
2013-06-27 21:33:00,78.5,67.5,29.85,West,273,1.0,2.0,69,0.00,,---,0.01,VWS V14.01,2013-06-28 02:33:00,
2013-06-27 21:39:00,78.4,67.4,29.85,WNW,287,0.0,4.0,69,0.00,,---,0.01,VWS V14.01,2013-06-28 02:39:00,
2013-06-27 21:45:00,78.3,66.0,29.85,West,259,3.0,10.0,66,0.00,,---,0.01,VWS V14.01,2013-06-28 02:45:00,
2013-06-27 21:50:00,78.8,66.1,29.85,WSW,252,1.0,10.0,65,0.00,,---,0.01,VWS V14.01,2013-06-28 02:50:00,
2013-06-27 21:56:00,78.5,65.8,29.86,West,278,1.0,10.0,65,0.00,,---,0.01,VWS V14.01,2013-06-28 02:56:00,
2013-06-27 22:00:00,78.5,65.8,29.86,WNW,293,1.0,10.0,65,0.00,,---,0.01,VWS V14.01,2013-06-28 03:00:00,
2013-06-27 22:01:00,78.5,65.8,29.86,West,262,2.0,3.0,65,0.00,,---,0.01,VWS V14.01,2013-06-28 03:01:00,
2013-06-27 22:06:00,78.5,65.3,29.86,WSW,256,1.0,6.0,64,0.00,,---,0.01,VWS V14.01,2013-06-28 03:06:00,
2013-06-27 22:11:00,78.3,65.1,29.86,West,261,1.0,6.0,64,0.00,,---,0.01,VWS V14.01,2013-06-28 03:11:00,
2013-06-27 22:17:00,78.0,64.8,29.87,West,271,1.0,6.0,64,0.00,,---,0.01,VWS V14.01,2013-06-28 03:17:00,
2013-06-27 22:22:00,77.4,65.2,29.87,SSW,200,0.0,6.0,66,0.00,,---,0.01,VWS V14.01,2013-06-28 03:22:00,
2013-06-27 22:27:00,77.0,64.3,29.87,West,266,1.0,6.0,65,0.00,,---,0.01,VWS V14.01,2013-06-28 03:27:00,
2013-06-27 22:30:00,76.9,64.2,29.87,SW,235,2.0,6.0,65,0.00,,---,0.01,VWS V14.01,2013-06-28 03:30:00,
2013-06-27 22:33:00,76.7,64.1,29.88,WSW,253,1.0,4.0,65,0.00,,---,0.01,VWS V14.01,2013-06-28 03:33:00,
2013-06-27 22:38:00,76.4,63.8,29.88,WNW,282,1.0,4.0,65,0.00,,---,0.01,VWS V14.01,2013-06-28 03:38:00,
2013-06-27 22:43:00,76.3,63.7,29.88,WNW,290,1.0,4.0,65,0.00,,---,0.01,VWS V14.01,2013-06-28 03:43:00,
2013-06-27 22:48:00,76.1,63.9,29.88,WSW,255,0.0,4.0,66,0.00,,---,0.01,VWS V14.01,2013-06-28 03:48:00,
2013-06-27 22:54:00,76.0,63.8,29.88,West,266,0.0,4.0,66,0.00,,---,0.01,VWS V14.01,2013-06-28 03:54:00,
2013-06-27 22:59:00,76.0,63.8,29.88,WNW,287,2.0,5.0,66,0.00,,---,0.01,VWS V14.01,2013-06-28 03:59:00,
2013-06-27 23:00:00,76.0,63.8,29.88,WNW,287,2.0,5.0,66,0.00,,---,0.01,VWS V14.01,2013-06-28 04:00:00,
2013-06-27 23:01:00,76.1,63.5,29.88,West,276,0.0,3.0,65,0.00,,---,0.01,VWS V14.01,2013-06-28 04:01:00,
2013-06-27 23:02:00,76.1,63.9,29.88,WSW,245,1.0,3.0,66,0.00,,---,0.01,VWS V14.01,2013-06-28 04:02:00,
2013-06-27 23:07:00,75.9,63.7,29.88,WSW,242,0.0,4.0,66,0.00,,---,0.01,VWS V14.01,2013-06-28 04:07:00,
2013-06-27 23:12:00,75.7,64.0,29.88,West,276,0.0,4.0,67,0.00,,---,0.01,VWS V14.01,2013-06-28 04:12:00,
2013-06-27 23:17:00,75.3,63.2,29.88,WNW,294,1.0,4.0,66,0.00,,---,0.01,VWS V14.01,2013-06-28 04:17:00,
2013-06-27 23:22:00,75.3,63.6,29.88,SW,232,2.0,4.0,67,0.00,,---,0.01,VWS V14.01,2013-06-28 04:22:00,
2013-06-27 23:27:00,75.2,63.9,29.88,SW,231,0.0,4.0,68,0.00,,---,0.01,VWS V14.01,2013-06-28 04:27:00,
2013-06-27 23:30:00,75.1,63.4,29.88,West,270,1.0,4.0,67,0.00,,---,0.01,VWS V14.01,2013-06-28 04:30:00,
2013-06-27 23:32:00,75.1,63.4,29.88,SW,230,1.0,4.0,67,0.00,,---,0.01,VWS V14.01,2013-06-28 04:32:00,
2013-06-27 23:37:00,75.0,63.7,29.88,WSW,257,1.0,4.0,68,0.00,,---,0.01,VWS V14.01,2013-06-28 04:37:00,
2013-06-27 23:42:00,74.7,63.9,29.88,West,269,1.0,4.0,69,0.00,,---,0.01,VWS V14.01,2013-06-28 04:42:00,
2013-06-27 23:47:00,74.8,64.0,29.88,NW,308,1.0,5.0,69,0.00,,---,0.01,VWS V14.01,2013-06-28 04:47:00,
2013-06-27 23:52:00,74.8,63.5,29.88,West,263,2.0,5.0,68,0.00,,---,0.01,VWS V14.01,2013-06-28 04:52:00,
2013-06-27 23:57:00,74.8,63.5,29.88,SW,232,1.0,5.0,68,0.00,,---,0.01,VWS V14.01,2013-06-28 04:57:00,